Showing default

COSMOS 2466 (GLONASS), 37137

Orbit data source: Space-Track

COSMOS 2466 (GLONASS), 37137 is a Commonwealth of Independent States-origin payload satellite in MEO that was launched on Thu, 02 Sep 2010 UTC via a PROTON-M/DM-2 launch vehicle from the Tyuratam Missile And Space Complex (TTMTR). Payload-class satellites include a variety of spacecraft equipped with specific instruments for various scientific and technological missions. These include communications satellites like Starlink; space stations such as the ISS; scientific satellites like the Hubble; Earth observation satellites from companies like Planet Labs, Umbra, and HawkEye 360; GPS; miniature CubeSats for education and research; and military/defense satellites.

Loading next visibility...
Identifier
37137, 2010-041A
Orbit
MEO
Last TLE update
3 days ago
Origin
Manufacturer
Resehetnev ISS
Mission
Non-operational Defense Navigation
Bus & Motor
URAGAN, Unknown motor
Mass
1,450 kg wet, ~1,200 kg dry
Launch date (UTC)
2010-09-02 (15 years ago)
Launch vehicle
PROTON-M/DM-2
Launch site
Tyuratam Missile And Space Complex (TTMTR)
Object type
Payload
Rocket body
Debris
Shape & HBR
Cyl + 1 Ant + 2 Pan, 7.8 m
Radar Cross Section
8.467 m², Large (>1 m²)

Expand to show TLE details & history

TLE from 3 days ago
0 COSMOS 2466 (GLONASS)
1 37137U 10041A   25179.39126030  .00000046  00000-0  00000-0 0  9995
2 37137  63.8931 202.2027 0017809 180.9239 279.6345  2.13112694115300
Epoch: 2025-06-28T09:23Z
TLE epoch observation values (Epoch: 2025-06-28T09:23:24.889Z)
Latitude
62.06753°
Longitude
-102.86779°
Altitude
19,131.49 km
Speed
3.955 km/s
True Right ascension
20h 58m 51s
True Declination
62° 01' 40"
Sunlit
Object was in daylight at epoch
Visualization orbit readout
Latitude
-63.88541°
Longitude
57.07279°
Altitude
19,152.863 km
Speed
3.952 km/s
Apparent Right ascension
08h 19m 33s
Apparent Declination
-60° 03' 10"
Sunlit
Object is in daylight
Visualization observer readout
Local Sidereal Time
21:55:49
Azimuth
151.318° SSE
Elevation
-64.903°
Doppler factor
1
Orbital elements
Apogee altitude
19,174.113 km
Perigee altitude
19,083.263 km
Semi-major axis
25,506.825 km
Eccentricity
0.00178
Inclination
63.8931°
RAAN
202.2027°
Arg. of periapsis
180.9239°
True anomaly
Unknown
Mean anomaly
279.6345°
Eccentric anomaly
Unknown
Mean motion
0.53279 °/min
Orbital period
675.68 mins
BSTAR
0
Loading maneuver chart data...
Loading SW <> Apogee altitude chart data...
Loading historical data...
Loading historical data...
Loading historical data...
Loading historical data...
Loading historical data...
Loading historical data...
Loading historical data...

COSMOS 2466 (GLONASS) Visibility forecast

Observer location: undefined°, undefined°

Span
Click to sort rows by Start time (UTC) header in descending order
Start Az.
Max El. time (UTC)
Max El. Az.
Max El.
End time (UTC)
End Az.
126 mins2025-07-01 15:57:23.571Z334.58° NNW2025-07-01 16:59:23.571Z306.228° NW19.532°2025-07-01 18:03:23.571Z274.4° WNW
261 mins2025-07-01 23:34:23.571Z157.378° SSE2025-07-02 01:42:23.571Z87.365° E42.277°2025-07-02 03:55:23.571Z38.024° NE
|